• In Portugal
  • List of Countries
  • For 7 days
  • Water Temperature
  • Satellite Maps
  • Weather Map
  • Weather Widgets
  • user-avatar
    Login

    Hourly Weather Boskino

    Today, 28 May, Monday

    Time Temperature Precipitation Wind Pressure Humidity
    00:00 +12°C° 0 mm 2 mps 762 mmHg 61%
    01:00 +10°C° 0 mm 2 mps 763 mmHg 61%
    02:00 +9°C° 0 mm 2 mps 763 mmHg 60%
    03:00 +9°C° 0 mm 2 mps 763 mmHg 62%
    04:00 +9°C° 0 mm 2 mps 764 mmHg 65%
    05:00 +9°C° 0 mm 2 mps 764 mmHg 67%
    06:00 +12°C° 0 mm 2 mps 764 mmHg 61%
    07:00 +14°C° 0 mm 2 mps 765 mmHg 55%
    08:00 +16°C° 0 mm 2 mps 765 mmHg 48%
    09:00 +18°C° 0 mm 3 mps 765 mmHg 44%
    10:00 +19°C° 0 mm 3 mps 765 mmHg 39%
    11:00 +21°C° 0 mm 3 mps 765 mmHg 34%
    12:00 +21°C° 0 mm 3 mps 765 mmHg 33%
    13:00 +22°C° 0 mm 3 mps 765 mmHg 33%
    14:00 +24°C° 0 mm 3 mps 765 mmHg 32%
    15:00 +23°C° 0 mm 2 mps 764 mmHg 34%
    16:00 +23°C° 0 mm 2 mps 764 mmHg 36%
    17:00 +23°C° 0 mm 2 mps 764 mmHg 38%
    18:00 +20°C° 0 mm 2 mps 764 mmHg 46%
    19:00 +18°C° 0 mm 2 mps 764 mmHg 54%
    20:00 +16°C° 0 mm 1 mps 764 mmHg 62%
    21:00 +15°C° 0 mm 1 mps 764 mmHg 63%
    22:00 +14°C° 0 mm 1 mps 764 mmHg 63%
    23:00 +12°C° 0 mm 2 mps 764 mmHg 63%

    Tomorrow, 29 May, Tuesday

    Time Temperature Precipitation Wind Pressure Humidity
    00:00 +12°C° 0 mm 2 mps 764 mmHg 64%
    01:00 +10°C° 0 mm 2 mps 764 mmHg 66%
    02:00 +10°C° 0 mm 2 mps 764 mmHg 67%
    03:00 +10°C° 0 mm 2 mps 764 mmHg 68%
    04:00 +10°C° 0 mm 2 mps 764 mmHg 70%
    05:00 +12°C° 0 mm 2 mps 764 mmHg 71%
    06:00 +14°C° 0 mm 2 mps 763 mmHg 66%
    07:00 +16°C° 0 mm 2 mps 763 mmHg 62%
    08:00 +18°C° 0 mm 2 mps 763 mmHg 57%
    09:00 +20°C° 0 mm 2 mps 762 mmHg 54%
    10:00 +23°C° 0 mm 2 mps 762 mmHg 51%
    11:00 +25°C° 0 mm 3 mps 761 mmHg 48%
    12:00 +26°C° 0 mm 3 mps 761 mmHg 46%
    13:00 +26°C° 0 mm 3 mps 760 mmHg 45%
    14:00 +27°C° 0 mm 3 mps 759 mmHg 43%
    15:00 +27°C° 0 mm 3 mps 759 mmHg 45%
    16:00 +27°C° 0 mm 3 mps 758 mmHg 47%
    17:00 +27°C° 0 mm 3 mps 758 mmHg 49%
    18:00 +25°C° 0 mm 2 mps 757 mmHg 58%
    19:00 +23°C° 0 mm 2 mps 757 mmHg 66%
    20:00 +21°C° 0 mm 1 mps 757 mmHg 75%
    21:00 +19°C° 0 mm 2 mps 757 mmHg 78%
    22:00 +18°C° 0 mm 2 mps 756 mmHg 81%
    23:00 +17°C° 0 mm 2 mps 756 mmHg 84%

    Day after tomorrow, 30 May, Wednesday

    Time Temperature Precipitation Wind Pressure Humidity
    00:00 +16°C° 0 mm 2 mps 756 mmHg 86%
    01:00 +16°C° 0 mm 2 mps 756 mmHg 88%
    02:00 +15°C° 0 mm 2 mps 756 mmHg 89%
    03:00 +15°C° 0 mm 2 mps 756 mmHg 88%
    04:00 +16°C° 0 mm 2 mps 755 mmHg 86%
    05:00 +16°C° 0 mm 2 mps 755 mmHg 85%
    06:00 +18°C° 0 mm 3 mps 755 mmHg 77%
    07:00 +20°C° 0 mm 3 mps 754 mmHg 69%
    08:00 +21°C° 0 mm 4 mps 754 mmHg 61%
    09:00 +23°C° 0 mm 4 mps 754 mmHg 56%
    10:00 +25°C° 0 mm 4 mps 753 mmHg 51%
    11:00 +26°C° 0 mm 5 mps 753 mmHg 46%
    12:00 +27°C° 0 mm 5 mps 752 mmHg 44%
    13:00 +27°C° 0 mm 5 mps 752 mmHg 42%
    14:00 +28°C° 0 mm 5 mps 752 mmHg 41%
    15:00 +27°C° 0 mm 4 mps 751 mmHg 45%
    16:00 +26°C° 0 mm 4 mps 751 mmHg 50%
    17:00 +25°C° 0 mm 3 mps 750 mmHg 54%
    18:00 +22°C° 0.1 mm 3 mps 750 mmHg 61%
    19:00 +21°C° 0.1 mm 3 mps 750 mmHg 67%
    20:00 +19°C° 0.1 mm 3 mps 750 mmHg 73%
    21:00 +17°C° 0 mm 3 mps 750 mmHg 73%
    22:00 +14°C° 0 mm 3 mps 751 mmHg 73%
    23:00 +12°C° 0 mm 3 mps 751 mmHg 73%

    31 May, Thursday

    Time Temperature Precipitation Wind Pressure Humidity
    00:00 +11°C° 0 mm 3 mps 752 mmHg 71%
    01:00 +11°C° 0 mm 3 mps 752 mmHg 70%
    02:00 +10°C° 0 mm 3 mps 752 mmHg 68%
    03:00 +10°C° 0 mm 3 mps 753 mmHg 69%
    04:00 +10°C° 0 mm 3 mps 753 mmHg 70%
    05:00 +10°C° 0 mm 4 mps 754 mmHg 72%
    06:00 +11°C° 0 mm 4 mps 754 mmHg 68%
    07:00 +11°C° 0 mm 4 mps 754 mmHg 64%
    08:00 +12°C° 0 mm 5 mps 755 mmHg 60%
    09:00 +13°C° 0 mm 5 mps 755 mmHg 54%
    10:00 +14°C° 0 mm 5 mps 755 mmHg 48%
    11:00 +14°C° 0 mm 5 mps 755 mmHg 41%
    12:00 +15°C° 0 mm 5 mps 755 mmHg 39%
    13:00 +15°C° 0 mm 5 mps 756 mmHg 37%
    14:00 +15°C° 0 mm 5 mps 756 mmHg 35%
    15:00 +15°C° 0 mm 5 mps 756 mmHg 36%
    16:00 +14°C° 0 mm 5 mps 756 mmHg 37%
    17:00 +14°C° 0 mm 5 mps 756 mmHg 38%
    18:00 +13°C° 0 mm 4 mps 756 mmHg 43%
    19:00 +11°C° 0 mm 4 mps 757 mmHg 49%
    20:00 +10°C° 0 mm 3 mps 757 mmHg 54%
    21:00 +9°C° 0 mm 3 mps 757 mmHg 55%
    22:00 +7°C° 0 mm 4 mps 758 mmHg 56%
    23:00 +6°C° 0 mm 4 mps 758 mmHg 57%

    1 June, Friday

    Time Temperature Precipitation Wind Pressure Humidity
    00:00 +5°C° 0 mm 4 mps 759 mmHg 58%
    01:00 +5°C° 0 mm 4 mps 759 mmHg 60%
    02:00 +4°C° 0 mm 3 mps 759 mmHg 61%
    03:00 +4°C° 0 mm 3 mps 760 mmHg 61%
    04:00 +4°C° 0 mm 4 mps 760 mmHg 61%
    05:00 +4°C° 0 mm 4 mps 760 mmHg 61%
    06:00 +5°C° 0 mm 4 mps 760 mmHg 57%
    07:00 +7°C° 0 mm 4 mps 761 mmHg 53%
    08:00 +8°C° 0 mm 4 mps 761 mmHg 48%
    09:00 +10°C° 0 mm 4 mps 761 mmHg 45%
    10:00 +11°C° 0 mm 4 mps 761 mmHg 42%
    11:00 +13°C° 0 mm 4 mps 761 mmHg 39%
    12:00 +13°C° 0 mm 4 mps 761 mmHg 38%
    13:00 +14°C° 0 mm 4 mps 760 mmHg 37%
    14:00 +14°C° 0 mm 4 mps 760 mmHg 36%
    15:00 +14°C° 0 mm 4 mps 760 mmHg 37%
    16:00 +14°C° 0 mm 4 mps 760 mmHg 38%
    17:00 +14°C° 0 mm 3 mps 760 mmHg 39%
    18:00 +13°C° 0 mm 3 mps 760 mmHg 47%
    19:00 +12°C° 0 mm 2 mps 760 mmHg 54%
    20:00 +9°C° 0 mm 2 mps 760 mmHg 62%
    21:00 +9°C° 0 mm 1 mps 761 mmHg 64%
    22:00 +8°C° 0 mm 1 mps 761 mmHg 65%
    23:00 +7°C° 0 mm 1 mps 761 mmHg 66%

    2 June, Saturday

    Time Temperature Precipitation Wind Pressure Humidity
    00:00 +6°C° 0 mm 1 mps 761 mmHg 68%
    01:00 +6°C° 0 mm 1 mps 761 mmHg 69%
    02:00 +5°C° 0 mm 1 mps 761 mmHg 71%
    03:00 +6°C° 0 mm 1 mps 761 mmHg 70%
    04:00 +6°C° 0 mm 1 mps 761 mmHg 70%
    05:00 +7°C° 0 mm 1 mps 761 mmHg 70%
    06:00 +10°C° 0 mm 1 mps 761 mmHg 62%
    07:00 +11°C° 0 mm 0 mps 761 mmHg 54%
    08:00 +14°C° 0 mm 0 mps 761 mmHg 46%
    09:00 +16°C° 0 mm 1 mps 761 mmHg 42%
    10:00 +19°C° 0 mm 1 mps 761 mmHg 38%
    11:00 +20°C° 0 mm 1 mps 761 mmHg 34%
    12:00 +21°C° 0 mm 1 mps 760 mmHg 34%
    13:00 +21°C° 0 mm 1 mps 760 mmHg 33%
    14:00 +22°C° 0 mm 1 mps 759 mmHg 32%
    15:00 +22°C° 0 mm 1 mps 759 mmHg 33%
    16:00 +21°C° 0 mm 1 mps 758 mmHg 35%
    17:00 +21°C° 0 mm 1 mps 758 mmHg 36%
    18:00 +19°C° 0 mm 1 mps 758 mmHg 44%
    19:00 +15°C° 0 mm 0 mps 757 mmHg 52%
    20:00 +13°C° 0 mm 0 mps 757 mmHg 60%
    21:00 +11°C° 0 mm 0 mps 757 mmHg 61%
    22:00 +10°C° 0 mm 0 mps 757 mmHg 62%
    23:00 +9°C° 0 mm 0 mps 757 mmHg 63%
    Show more